TimeCST,TemperatureF,Dew PointF,Humidity,Sea Level PressureIn,VisibilityMPH,Wind Direction,Wind SpeedMPH,Gust SpeedMPH,PrecipitationIn,Events,Conditions,WindDirDegrees,DateUTC
12:15 AM,46.4,33.8,62,30.25,10.0,North,9.2,-,N/A,,Clear,10,2012-12-05 06:15:00
12:35 AM,46.4,35.6,66,30.25,10.0,NNE,6.9,-,N/A,,Clear,20,2012-12-05 06:35:00
12:55 AM,46.4,35.6,66,30.25,10.0,NE,4.6,-,N/A,,Clear,40,2012-12-05 06:55:00
1:15 AM,44.6,35.6,71,30.26,10.0,NNE,9.2,-,N/A,,Clear,20,2012-12-05 07:15:00
1:35 AM,44.6,35.6,71,30.26,10.0,NNE,5.8,-,N/A,,Clear,30,2012-12-05 07:35:00
1:55 AM,46.4,37.4,71,30.26,10.0,ENE,5.8,-,N/A,,Clear,60,2012-12-05 07:55:00
2:15 AM,46.4,37.4,71,30.25,10.0,NE,5.8,-,N/A,,Scattered Clouds,50,2012-12-05 08:15:00
2:35 AM,48.2,37.4,66,30.26,10.0,NE,6.9,-,N/A,,Mostly Cloudy,50,2012-12-05 08:35:00
2:55 AM,50.0,37.4,62,30.25,10.0,NE,6.9,-,N/A,,Mostly Cloudy,50,2012-12-05 08:55:00
3:15 AM,48.2,35.6,62,30.25,10.0,ENE,6.9,-,N/A,,Mostly Cloudy,70,2012-12-05 09:15:00
3:55 AM,46.4,35.6,66,30.24,10.0,East,8.1,-,N/A,,Clear,80,2012-12-05 09:55:00
4:15 AM,46.4,33.8,62,30.24,10.0,East,6.9,-,N/A,,Clear,80,2012-12-05 10:15:00
4:35 AM,44.6,33.8,66,30.25,10.0,NNE,3.5,-,N/A,,Scattered Clouds,30,2012-12-05 10:35:00
4:55 AM,44.6,35.6,71,30.26,10.0,North,3.5,-,N/A,,Mostly Cloudy,10,2012-12-05 10:55:00
5:15 AM,44.6,35.6,71,30.27,10.0,North,5.8,-,N/A,,Mostly Cloudy,10,2012-12-05 11:15:00
5:35 AM,46.4,35.6,66,30.27,10.0,North,4.6,-,N/A,,Overcast,360,2012-12-05 11:35:00
5:55 AM,46.4,35.6,66,30.27,10.0,North,3.5,-,N/A,,Mostly Cloudy,10,2012-12-05 11:55:00
6:15 AM,44.6,35.6,71,30.27,10.0,NNE,4.6,-,N/A,,Overcast,30,2012-12-05 12:15:00
6:35 AM,44.6,35.6,71,30.27,10.0,NNE,4.6,-,N/A,,Mostly Cloudy,20,2012-12-05 12:35:00
6:55 AM,44.6,35.6,71,30.27,10.0,NE,4.6,-,N/A,,Overcast,40,2012-12-05 12:55:00
8:55 AM,50.0,35.6,58,30.29,10.0,North,5.8,-,N/A,,Overcast,10,2012-12-05 14:55:00
9:15 AM,50.0,37.4,62,30.29,10.0,NE,6.9,-,N/A,,Overcast,50,2012-12-05 15:15:00
9:35 AM,51.8,35.6,54,30.30,10.0,NE,6.9,-,N/A,,Overcast,40,2012-12-05 15:35:00
9:55 AM,53.6,37.4,54,30.29,10.0,NE,9.2,-,N/A,,Overcast,40,2012-12-05 15:55:00
10:15 AM,53.6,37.4,54,30.28,10.0,ENE,8.1,-,N/A,,Overcast,60,2012-12-05 16:15:00
10:35 AM,53.6,37.4,54,30.28,10.0,East,9.2,-,N/A,,Overcast,80,2012-12-05 16:35:00
10:55 AM,55.4,39.2,54,30.27,10.0,ENE,10.4,-,N/A,,Overcast,70,2012-12-05 16:55:00
11:15 AM,55.4,39.2,54,30.26,10.0,ENE,9.2,-,N/A,,Overcast,70,2012-12-05 17:15:00
11:55 AM,59.0,41.0,51,30.23,10.0,East,6.9,-,N/A,,Overcast,80,2012-12-05 17:55:00
12:15 PM,60.8,41.0,48,30.22,10.0,East,4.6,-,N/A,,Overcast,90,2012-12-05 18:15:00
12:55 PM,62.6,42.8,48,30.20,10.0,ENE,4.6,-,N/A,,Overcast,70,2012-12-05 18:55:00
1:15 PM,62.6,42.8,48,30.19,10.0,Calm,Calm,-,N/A,,Overcast,0,2012-12-05 19:15:00
1:35 PM,62.6,42.8,48,30.17,10.0,NNE,5.8,-,N/A,,Overcast,30,2012-12-05 19:35:00
1:55 PM,64.4,44.6,49,30.16,10.0,East,6.9,-,N/A,,Scattered Clouds,90,2012-12-05 19:55:00
2:15 PM,64.4,44.6,49,30.15,10.0,ESE,6.9,-,N/A,,Scattered Clouds,120,2012-12-05 20:15:00
2:35 PM,66.2,44.6,46,30.15,10.0,ESE,5.8,-,N/A,,Clear,110,2012-12-05 20:35:00
2:55 PM,66.2,44.6,46,30.14,10.0,SE,8.1,-,N/A,,Clear,130,2012-12-05 20:55:00
3:15 PM,64.4,44.6,49,30.14,10.0,ESE,10.4,-,N/A,,Clear,120,2012-12-05 21:15:00
3:35 PM,64.4,44.6,49,30.14,10.0,SE,8.1,-,N/A,,Scattered Clouds,130,2012-12-05 21:35:00
3:55 PM,64.4,44.6,49,30.14,10.0,ESE,6.9,-,N/A,,Scattered Clouds,110,2012-12-05 21:55:00
4:15 PM,62.6,44.6,52,30.14,10.0,ESE,4.6,-,N/A,,Clear,120,2012-12-05 22:15:00
4:35 PM,60.8,44.6,55,30.14,10.0,SE,4.6,-,N/A,,Clear,140,2012-12-05 22:35:00
4:55 PM,60.8,44.6,55,30.14,10.0,SE,3.5,-,N/A,,Mostly Cloudy,140,2012-12-05 22:55:00
5:15 PM,59.0,44.6,59,30.14,10.0,SE,4.6,-,N/A,,Overcast,130,2012-12-05 23:15:00
5:35 PM,59.0,44.6,59,30.13,10.0,SE,4.6,-,N/A,,Overcast,140,2012-12-05 23:35:00
5:55 PM,59.0,44.6,59,30.13,10.0,SE,4.6,-,N/A,,Scattered Clouds,140,2012-12-05 23:55:00
6:15 PM,57.2,44.6,63,30.13,10.0,Calm,Calm,-,N/A,,Mostly Cloudy,0,2012-12-06 00:15:00
6:35 PM,57.2,44.6,63,30.13,10.0,ESE,4.6,-,N/A,,Overcast,120,2012-12-06 00:35:00
6:55 PM,57.2,44.6,63,30.12,10.0,ESE,5.8,-,N/A,,Mostly Cloudy,110,2012-12-06 00:55:00
7:15 PM,55.4,44.6,67,30.12,10.0,ESE,6.9,-,N/A,,Scattered Clouds,110,2012-12-06 01:15:00
7:35 PM,55.4,44.6,67,30.12,10.0,ESE,8.1,-,N/A,,Clear,110,2012-12-06 01:35:00
7:57 PM,55.4,46.4,72,30.12,10.0,ESE,9.2,-,N/A,,Clear,120,2012-12-06 01:57:00
8:17 PM,55.4,44.6,67,30.11,10.0,ESE,9.2,-,N/A,,Clear,110,2012-12-06 02:17:00
8:37 PM,55.4,44.6,67,30.12,10.0,ESE,6.9,-,N/A,,Clear,110,2012-12-06 02:37:00
8:57 PM,53.6,44.6,72,30.11,10.0,ESE,6.9,-,N/A,,Clear,110,2012-12-06 02:57:00
9:17 PM,53.6,44.6,72,30.11,10.0,ESE,6.9,-,N/A,,Clear,110,2012-12-06 03:17:00
9:57 PM,51.8,44.6,76,30.10,10.0,ESE,6.9,-,N/A,,Clear,110,2012-12-06 03:57:00
10:17 PM,51.8,44.6,76,30.10,10.0,ESE,8.1,-,N/A,,Clear,110,2012-12-06 04:17:00
10:37 PM,51.8,44.6,76,30.09,10.0,ESE,6.9,-,N/A,,Clear,110,2012-12-06 04:37:00
10:57 PM,50.0,44.6,82,30.09,10.0,ESE,5.8,-,N/A,,Clear,110,2012-12-06 04:57:00
11:23 PM,50.0,42.8,76,30.09,10.0,ESE,5.8,-,N/A,,Clear,120,2012-12-06 05:23:00
11:37 PM,50.0,44.6,82,30.08,10.0,ESE,8.1,-,N/A,,Clear,110,2012-12-06 05:37:00
11:56 PM,50.0,44.6,82,30.08,10.0,ESE,8.1,-,N/A,,Clear,110,2012-12-06 05:56:00